Simultaneous Nadir Overpasses (SNOs) Predictions

Prediction of SNOs near equator between AQUA and NPP Satellite Orbit:

Table of predicted SNOs near equator for the next 14.0 days since TLE Epoch: 11/14/2014
Index Date (AQUA) Time (AQUA) AQUA Lat,Lon Date (NPP) Time (NPP) NPP Lat,Lon Distance(km) Time Diff (sec)
1 11/16/2014 04:41:59 -29.96, -51.33 11/16/2014 04:34:56 -30.14, -50.44 88.12 423
2 11/16/2014 05:31:30 30.00, 116.28 11/16/2014 05:25:44 30.11, 116.86 57.56 346
3 11/16/2014 06:20:52 -29.95, -76.05 11/16/2014 06:16:24 -30.03, -75.79 27.07 268
4 11/16/2014 07:09:18 26.08, 92.55 11/16/2014 07:06:05 26.08, 92.56 1.04 193
5 11/16/2014 07:50:34 3.27, -93.26 11/16/2014 07:48:26 3.27, -93.27 0.55 128
6 11/16/2014 08:33:43 -26.30, 79.55 11/16/2014 08:32:42 -26.34, 79.48 8.26 61
7 11/16/2014 09:22:06 29.89,-111.88 11/16/2014 09:22:21 29.96,-112.22 34.13 15
8 11/16/2014 10:11:36 -29.91, 55.75 11/16/2014 10:13:08 -30.06, 55.10 64.70 92
9 11/16/2014 11:00:59 29.90,-136.60 11/16/2014 11:03:49 30.07,-137.57 95.36 170
10 11/18/2014 20:58:31 -29.95, 64.54 11/18/2014 20:51:49 -30.08, 65.33 78.05 402
11 11/18/2014 21:48:02 29.99,-127.85 11/18/2014 21:42:38 30.11,-127.38 47.48 324
12 11/18/2014 22:37:24 -29.94, 39.82 11/18/2014 22:33:17 -29.98, 39.99 16.79 247
13 11/18/2014 23:23:35 17.93,-149.65 11/18/2014 23:20:40 17.93,-149.65 0.55 175
14 11/19/2014 00:04:15 13.61, 24.84 11/19/2014 00:02:24 13.61, 24.84 0.80 111
15 11/19/2014 00:49:54 -27.57,-164.26 11/19/2014 00:49:14 -27.62,-164.42 16.82 40
16 11/19/2014 01:38:38 29.89, 3.99 11/19/2014 01:39:15 29.96, 3.54 44.42 37
17 11/19/2014 02:28:08 -29.92, 171.62 11/19/2014 02:30:02 -30.06, 170.86 74.87 114
18 11/21/2014 12:25:40 29.97, 12.75 11/21/2014 12:18:03 30.18, 13.74 98.19 457
19 11/21/2014 13:15:03 -29.98,-179.60 11/21/2014 13:08:43 -30.09,-178.91 67.59 380
20 11/21/2014 14:04:33 29.96, -11.97 11/21/2014 13:59:31 30.07, -11.60 37.16 302
21 11/21/2014 14:53:56 -29.97, 155.68 11/21/2014 14:50:11 -29.99, 155.75 6.33 225
22 11/21/2014 15:36:55 6.37, -31.23 11/21/2014 15:34:17 6.37, -31.23 0.62 158
23 11/21/2014 16:18:10 23.05, 142.88 11/21/2014 16:16:37 23.05, 142.86 1.49 93
24 11/21/2014 17:06:03 -28.92, -48.05 11/21/2014 17:05:45 -28.95, -48.31 25.64 18
25 11/21/2014 17:55:09 29.92, 119.87 11/21/2014 17:56:08 30.01, 119.31 54.79 59
26 11/21/2014 18:44:40 -29.89, -72.52 11/21/2014 18:46:56 -30.05, -73.38 85.35 136
27 11/24/2014 04:42:11 29.99, 128.62 11/24/2014 04:34:57 30.19, 129.50 87.57 434
28 11/24/2014 05:31:34 -29.99, -63.73 11/24/2014 05:25:37 -30.11, -63.15 56.87 357
29 11/24/2014 06:21:04 29.98, 103.90 11/24/2014 06:16:24 30.03, 104.17 26.36 280
30 11/24/2014 07:09:25 -26.32, -87.51 11/24/2014 07:06:01 -26.32, -87.51 0.09 204
31 11/24/2014 07:50:26 -4.43, 86.94 11/24/2014 07:48:06 -4.43, 86.94 0.15 140
32 11/24/2014 08:33:57 25.62,-100.62 11/24/2014 08:32:45 25.67,-100.71 9.91 72
33 11/24/2014 09:22:16 -29.92, 68.09 11/24/2014 09:22:20 -29.98, 67.74 34.73 4
34 11/24/2014 10:11:39 29.90,-124.26 11/24/2014 10:13:00 30.05,-124.92 65.40 81
35 11/24/2014 11:01:09 -29.93, 43.37 11/24/2014 11:03:47 -30.15, 42.41 95.91 158
36 11/26/2014 20:58:40 29.98,-115.50 11/26/2014 20:51:49 30.16,-114.73 76.68 411
37 11/26/2014 21:48:03 -29.99, 52.15 11/26/2014 21:42:29 -30.07, 52.62 46.01 334
38 11/26/2014 22:37:33 29.98,-140.22 11/26/2014 22:33:16 29.99,-140.06 15.56 257
39 11/26/2014 23:23:12 -16.51, 30.68 11/26/2014 23:20:07 -16.51, 30.67 0.48 185
40 11/27/2014 00:03:36 -16.50,-154.54 11/27/2014 00:01:34 -16.51,-154.53 1.13 122
41 11/27/2014 00:50:04 27.01, 15.60 11/27/2014 00:49:15 27.05, 15.41 18.99 49
42 11/27/2014 01:38:46 -29.92,-176.03 11/27/2014 01:39:13 -30.01,-176.49 45.60 27
43 11/27/2014 02:28:09 29.90, -8.38 11/27/2014 02:29:53 30.08, -9.15 76.34 104




NCC Satellite Simultaneous Nadir Overpasses (SNOs) Prediction Service
